Regional Weather Roundup
Issued by NWS San Diego, CA

Home | Current Version | Previous Version | Text Only | Print | Product List | Glossary On
Versions: 1 2 3 4 5 6 7 8 9 10 11 12 13 14 15 16 17 18 19 20 21 22 23 24 25 26 27 28
000
ASUS46 KSGX 290211
RWRSGX

SAN DIEGO HOURLY WEATHER ROUNDUP
NATIONAL WEATHER SERVICE SAN DIEGO CA
700 PM PDT SAT MAY 28 2016

NOTE: "FAIR" INDICATES FEW OR NO CLOUDS BELOW 12,000 FEET WITH NO
SIGNIFICANT WEATHER AND/OR OBSTRUCTIONS TO VISIBILITY.

CAZ042-043-060-061-PZZ750-775-290300-

GREATER SAN DIEGO AREA

CITY           SKY/WX    TMP DP  RH WIND       PRES   REMARKS
LINDBERGH FLD  CLOUDY    63  55  75 NW5       29.93R
POINT LOMA       N/A     60  53  77 W9          N/A
NATIONAL CITY    N/A     63  57  80 W3        29.93S
CHULA VISTA      N/A     62  58  84 W3        29.85R
IMPERIAL BEACH CLOUDY    65  55  70 W8        29.93R
BROWN FIELD    CLOUDY    59  55  87 W5        29.92R FOG
MIRAMAR MCAS   CLOUDY    65  54  67 W7        29.92R
MONTGOMERY FLD CLOUDY    63  54  72 W8        29.92R

$$

NORTH SAN DIEGO COUNTY

CITY           SKY/WX    TMP DP  RH WIND       PRES   REMARKS
CAMP PENDLETON CLOUDY    63  55  75 SW5       29.92R
OCEANSIDE AP   CLOUDY    63  53  70 W5        29.91R
OCEANSIDE HBR    N/A     63  59  86 SW10      29.94R
VISTA            N/A     62  56  82 SW3       29.90R
CARLSBAD       CLOUDY    62  56  80 W8        29.91R
DEL MAR          N/A     62  57  83 CALM      29.95R
LA JOLLA SCRIP   N/A     61  57  87 SW2       29.92R
FALLBROOK        N/A     63  59  87 SW5       29.89R
ESCONDIDO        N/A     63  57  80 SW6       29.93R
SAN MARCOS       N/A     61  52  73 W5        29.90R
POWAY            N/A     62  56  80 CALM      29.93R

$$

EAST SAN DIEGO COUNTY

CITY           SKY/WX    TMP DP  RH WIND       PRES   REMARKS
RAMONA         CLOUDY    59  54  83 W8        29.92R
SANTEE LAKES     N/A     62  57  83 W3        29.91R
LA MESA          N/A     61  56  83 CALM      29.85R
DESCANSO N       N/A     58  53  84 CALM      29.77R
MT. LAGUNA OBS   N/A     59  35  41 CALM      29.61R
CAMPO            N/A     60  53  77 SW15      29.87R

$$

ORANGE COUNTY AND THE LOS ANGELES BASIN

CITY           SKY/WX    TMP DP  RH WIND       PRES   REMARKS
JOHN WAYNE AP  PTCLDY    63  54  72 S12       29.91R
LAKE FOREST FR   N/A     62  53  71 SW6       29.80R
HUNTINGTON BCH   N/A     64  58  82 W5        29.93R
LOS ALAMITOS   MOCLDY    63  55  77 SW10      29.91R
FULLERTON      MOCLDY    65  55  70 SW10      29.90R
LONG BEACH     CLOUDY    64  55  72 SE8       29.90R
L.A. AP        CLOUDY    61  54  77 W9        29.91R
L.A. DOWNTOWN  CLOUDY    63  55  75 W6        29.90R

$$

THE INLAND EMPIRE

CITY           SKY/WX    TMP DP  RH WIND       PRES   REMARKS
CORONA         CLEAR     68  55  63 W10G21    29.86R
CHINO          PTCLDY    68  54  60 SW18      29.89R
ONTARIO        PTCLDY    67  53  61 SW15G21   29.88R
SAN BERNARDINO PTCLDY    73  54  49 SW14      29.87R
RIVERSIDE AP   CLEAR     70  54  56 W10G18    29.87R
MORENO VALLEY    N/A     73  59  62 NW8       27.98R
MARCH ARB      CLEAR     71  54  55 NW13      29.88R
HORSETHIEF CYN   N/A     75  50  41 NE6       29.87R
PERRIS           N/A     71  58  62 S6        29.86R
HEMET EAST       N/A     71  53  52 W6        29.76R
FRENCH VALLEY  FAIR      63  54  72 S14       29.91R
TEMECULA         N/A     63  57  81 SW8       29.85R

$$

SAN BERNARDINO AND RIVERSIDE COUNTY MOUNTAINS

CITY           SKY/WX    TMP DP  RH WIND       PRES   REMARKS
BIG BEAR AP    CLEAR     55  34  44 SW7       30.08R
PINE COVE        N/A     57  50  76 W2        29.82R

$$

SOUTHERN DESERT INCLUDING THE COACHELLA VALLEY

CITY           SKY/WX    TMP DP  RH WIND       PRES   REMARKS
PALM SPRINGS   CLEAR     91  48  22 MISG      29.75R
THOUSAND PALMS   N/A     92  28  10 E6        29.71R
PALM DESERT      N/A     91  28  10 CALM      30.21S
THERMAL        CLEAR     91  39  16 SE7       29.69R
BLYTHE         CLEAR     93  36  13 S18       29.72R
IMPERIAL AP    CLEAR     91  36  14 SE16      29.70R
MEXICALI       CLEAR     86  37  17 SE12      29.74R

$$

UPPER DESERT

CITY           SKY/WX    TMP DP  RH WIND       PRES   REMARKS
VICTORVILLE AP CLEAR     79  32  18 S17       29.85R
HESPERIA         N/A     72  48  42 SW5       29.88R
PALMDALE       SUNNY     77  44  30 W17       29.85R
LANCASTER      SUNNY     76  45  33 SW21G28   29.85R
EDWARDS AFB    SUNNY     80  43  26 SW26      29.80R
DAGGETT        PTCLDY    88  23   9 S9        29.77R
29 PALMS N     CLEAR     84  17   8 S10       29.87R
NEEDLES        CLEAR     95  29   9 SW15G21   29.72R

$$

REGIONAL REPORTS

CITY           SKY/WX    TMP DP  RH WIND       PRES   REMARKS
SANTA BARBARA  MOSUNNY   60  54  80 W10       29.89R
SANDBERG       SUNNY     69  39  33 SW5       29.99R
LAS VEGAS NV   MOCLDY    89  21   8 S5        29.75R
PHOENIX AZ     PTCLDY    94  25   8 S6        29.72R
TIJUANA        CLOUDY    61  52  72 W7        29.95R
ENSENADA NW      N/A     60  32  34 CALM      29.91R

$$

OFFSHORE ISLANDS

CITY           SKY/WX    TMP DP  RH WIND       PRES   REMARKS
CATALINA ARPT  PTCLDY    54  50  86 W8        29.93R

$$

MARINE AND OFFSHORE BUOY REPORTS

STATION/POSITION SKY/WX   TEMP    WIND        PRES    SWELL
                          AIR SEA DIR/SP/G            HT/PER/DIR
                          (F)     (DEG/KT/KT) (MB)    (FT/S/D)
TANNER BANKS               60 62  240/  6/ 10 1012.3R   7/310/10
S CLEMENTE BASIN           59 63  210/  4/  8 1012.9R   3/170/15
SAN NICOLAS IS.               60                N/A     3/170/15
SO. S. ROSA ISLA           58 59  250/  4/  6 1012.3R   8/330/10
W. S. BARBARA CH           56 56  240/  6/  8 1011.8R   5/320/10
M. S. BARBARA CH           58 60  270/  8/ 10 1012.8R
S. MONICA BASIN            58 63  230/  6/  8 1012.8R   3/190/15
S PEDRO CHANNEL               63                N/A     2/170/15
OCEANSIDE OFFSHR              65                N/A     2/160/15
TORREY PINES OTR              66                N/A     2/190/14
LA JOLLA 1                 62                 1012.8
SAN DIEGO BAY                                 1013.2R
POINT LOMA SOUTH              66                N/A     3/170/15

$$





USA.gov is the U.S. government's official web portal to all federal, state and local government web resources and services.